Regional Weather Roundup
Issued by NWS

Home | Current Version | Previous Version | Text Only | Print | Product List | Glossary Off
Versions: 1 2 3 4 5 6 7 8 9 10 11 12 13 14 15 16 17 18 19 20 21 22 23 24 25 26 27 28 29 30 31 32 33 34 35 36 37 38 39 40 41 42 43 44 45 46 47 48 49 50

000
ASUS43 KFSD 232110
RWRSD

WEATHER ROUNDUP FOR SOUTH DAKOTA
NATIONAL WEATHER SERVICE SIOUX FALLS SD
400 PM CDT SAT MAY 23 2015

NOTE: "FAIR" INDICATES FEW OR NO CLOUDS BELOW 12,000 FEET WITH NO
SIGNIFICANT WEATHER AND/OR OBSTRUCTIONS TO VISIBILITY.


SDZ001>005-009-010-012>017-232200-
NORTHWEST AND NORTH CENTRAL SOUTH DAKOTA

CITY           SKY/WX    TMP DP  RH WIND       PRES   REMARKS
BUFFALO          N/A     56  47  71 E14       30.01S
FAITH            N/A     59  48  67 SE15      30.07F
MOBRIDGE       CLOUDY    59  52  77 S12       30.10F
$$

SDZ012>016-024>037-041>051-057-063-072>074-232200-
SOUTHWEST AND SOUTH CENTRAL SOUTH DAKOTA

CITY           SKY/WX    TMP DP  RH WIND       PRES   REMARKS
RAPID CTY ARPT CLOUDY    56  49  77 SE12      30.03F
PIERRE         CLOUDY    61  53  75 SE8       30.07S
CUSTER         FOG       47  45  93 E7        30.06F VSB 1/4
ELLSWORTH AFB  CLOUDY    56  49  78 SE15      30.03
PHILIP         CLOUDY    62  53  72 E15       30.04F
PINE RIDGE     CLOUDY    60  51  72 E14       29.99F
SPEARFISH      LGT RAIN  52  50  93 E15       30.03S
WINNER         CLOUDY    62  54  74 SE15      30.07F
$$

SDZ004>011-016>023-039-040-232200-
NORTHEAST SOUTH DAKOTA

CITY           SKY/WX    TMP DP  RH WIND       PRES   REMARKS
ABERDEEN       CLOUDY    62  50  64 S3        30.14F
WATERTOWN      CLOUDY    65  49  56 S10G20    30.14F
BROOKINGS      CLOUDY    64  48  55 SE5       30.14F
SISSETON         N/A     69  46  43 S13G18    30.14F
$$

SDZ017-020-022-023-036>040-048>070-232200-
SOUTHEAST SOUTH DAKOTA

CITY           SKY/WX    TMP DP  RH WIND       PRES   REMARKS
SIOUX FALLS    CLOUDY    66  52  60 S8        30.11F
HURON          CLOUDY    65  52  62 S10       30.10F
CHAMBERLAIN    CLOUDY    62  54  77 SE10      30.08F
MITCHELL       CLOUDY    64  53  67 SE15      30.11F
YANKTON        CLOUDY    63  54  72 SE14      30.10F
$$

ABBREVIATIONS USED IN REMARKS
   TC - TEMPERATURE IN CELSIUS
  WCI - WIND CHILL INDEX
   HX - HEAT INDEX
  VSB - VISIBILITY



USA.gov is the U.S. government's official web portal to all federal, state and local government web resources and services.